[[{"header":{"parameterUnit":"m.s-1","parameterCategory":1,"la1":30.2992,"la2":30.254,"lo1":-89.0895,"lo2":-89.0443,"dy":0.0025,"dx":0.0025,"nx":19,"ny":19,"refTime":"2026-04-30T03:00:00:Z","depth":0,"parameterNumber":2,"parameterNumberName":"U-component_of_WINDS"},"data":[0,0,0,-2.8474,-2.8475,-2.8536,-2.8537,-2.8597,-2.8597,0,0,0,0,0,0,0,0,0,0,0,-2.8448,-2.8448,-2.8474,-2.8475,-2.8536,-2.8537,-2.8597,-2.8597,0,0,0,0,0,0,0,0,0,0,0,-2.8448,-2.8448,-2.8448,-2.8475,-2.8536,-2.8537,-2.8596,-2.8556,0,0,0,0,0,0,0,0,0,0,-2.8499,-2.8468,-2.8448,-2.8448,-2.8476,-2.8536,-2.8537,-2.8554,-2.8558,-2.8562,0,-2.8566,0,-2.8583,-2.86,-2.86,0,0,0,-2.848,-2.8465,-2.8489,-2.8448,-2.8476,-2.8536,-2.851,-2.8557,-2.8561,-2.8567,-2.8567,-2.857,-2.8584,-2.86,-2.8601,-2.8612,-2.8612,0,0,-2.8477,-2.8454,-2.8486,-2.8492,-2.8485,-2.8508,-2.8512,-2.856,-2.8556,-2.8567,-2.8571,-2.8585,-2.8601,-2.8601,-2.8613,-2.8612,0,0,0,-2.8464,-2.8451,-2.8475,-2.8489,-2.8501,-2.851,-2.8514,-2.8554,-2.8564,-2.8572,-2.8585,-2.8601,-2.8602,-2.8613,-2.8613,-2.8582,0,0,0,-2.8462,-2.8444,-2.8473,-2.8459,-2.85,-2.8529,-2.8507,-2.8561,-2.8567,-2.8585,-2.8601,-2.8602,-2.8613,-2.8613,-2.8583,-2.857,0,0,0,-2.8446,-2.8442,-2.8449,-2.8458,-2.8484,-2.8529,-2.8542,-2.8563,-2.8575,-2.86,-2.8602,-2.8613,-2.8613,-2.8585,-2.8572,-2.8566,0,0,0,-2.8422,-2.8419,-2.8448,-2.8449,-2.8483,-2.8512,-2.8542,-2.8563,-2.8582,-2.8601,-2.8613,-2.8613,-2.8585,-2.8573,-2.8567,-2.8555,-2.8548,0,0,-2.8405,-2.8416,-2.8419,-2.8446,-2.8464,-2.8504,-2.8516,-2.8553,-2.8575,-2.8598,-2.8598,-2.8583,-2.8572,-2.8566,-2.8524,-2.8519,0,0,0,-2.8405,-2.8407,-2.8417,-2.8435,-2.8466,-2.8489,-2.8528,-2.8541,-2.8563,-2.8583,-2.8581,-2.8575,-2.8572,-2.8567,-2.8563,-2.856,-2.861,-2.861,-2.861,-2.8345,-2.8377,-2.8383,-2.8421,-2.8438,-2.8479,-2.8494,-2.8519,-2.8543,-2.8542,-2.8548,-2.852,-2.8513,-2.851,-2.8508,-2.8547,-2.8546,-2.8546,-2.8546,-2.8321,-2.8327,-2.8363,-2.8381,-2.8413,-2.8427,-2.8466,-2.8483,-2.8498,-2.8518,-2.8516,-2.8532,-2.8504,-2.8503,-2.8544,-2.8545,-2.8545,-2.8545,-2.8545,-2.8283,-2.8292,-2.8311,-2.8341,-2.836,-2.8399,-2.8413,-2.8442,-2.8468,-2.8467,-2.8475,-2.8476,-2.8478,-2.847,-2.8469,-2.8469,-2.8469,-2.8469,-2.8469,-2.8235,-2.8259,-2.8269,-2.8303,-2.8318,-2.8342,-2.8384,-2.8398,-2.8421,-2.844,-2.8441,-2.8463,-2.8497,-2.8503,-2.8468,-2.8468,-2.8468,-2.8468,-2.8468,-2.8194,-2.8209,-2.8225,-2.8241,-2.8282,-2.8298,-2.8336,-2.8364,-2.838,-2.8386,-2.841,-2.8431,-2.8443,-2.8447,-2.8452,-2.8405,-2.8405,-2.8405,-2.8405,-2.816,-2.8171,-2.8194,-2.8217,-2.8243,-2.828,-2.8293,-2.8325,-2.8359,-2.8371,-2.8382,-2.8393,-2.8395,-2.8405,-2.841,-2.8415,-2.836,-2.836,-2.836,-2.8136,-2.815,-2.8158,-2.8196,-2.8231,-2.8259,-2.8272,-2.8294,-2.8336,-2.8359,-2.838,-2.8382,-2.8399,-2.8403,-2.8422,-2.8429,-2.8439,0,0]},{"header":{"parameterUnit":"m.s-1","parameterCategory":1,"la1":30.2992,"la2":30.254,"lo1":-89.0895,"lo2":-89.0443,"dy":0.0025,"dx":0.0025,"nx":19,"ny":19,"refTime":"2026-04-30T03:00:00:Z","depth":0,"parameterNumber":3,"parameterNumberName":"V-component_of_WINDS"},"data":[0,0,0,-0.7251,-0.7253,-0.7372,-0.7373,-0.7455,-0.7455,0,0,0,0,0,0,0,0,0,0,0,-0.7176,-0.7175,-0.7251,-0.7253,-0.7372,-0.7373,-0.7455,-0.7455,0,0,0,0,0,0,0,0,0,0,0,-0.7176,-0.7175,-0.7174,-0.7253,-0.7372,-0.7373,-0.7455,-0.7389,0,0,0,0,0,0,0,0,0,0,-0.7285,-0.7178,-0.7175,-0.7174,-0.7253,-0.7371,-0.7373,-0.7387,-0.7393,-0.7372,0,-0.7344,0,-0.7401,-0.7456,-0.7457,0,0,0,-0.7282,-0.7172,-0.7241,-0.7174,-0.7254,-0.7371,-0.7326,-0.7392,-0.7398,-0.7379,-0.7346,-0.7351,-0.7402,-0.7457,-0.7457,-0.7239,-0.7236,0,0,-0.7275,-0.7175,-0.7236,-0.7243,-0.7223,-0.7322,-0.733,-0.7397,-0.7353,-0.7347,-0.7354,-0.7403,-0.7457,-0.7457,-0.7241,-0.7238,0,0,0,-0.7237,-0.7169,-0.7238,-0.7238,-0.7265,-0.7325,-0.7334,-0.735,-0.7381,-0.7356,-0.7404,-0.7457,-0.7457,-0.7244,-0.724,-0.7022,0,0,0,-0.7234,-0.7147,-0.7233,-0.7173,-0.7262,-0.7309,-0.7283,-0.7376,-0.7387,-0.7404,-0.7457,-0.7457,-0.7247,-0.7242,-0.7034,-0.6934,0,0,0,-0.7181,-0.7142,-0.7145,-0.7167,-0.7215,-0.7311,-0.7347,-0.7381,-0.7415,-0.7457,-0.7457,-0.7249,-0.7243,-0.7045,-0.6952,-0.6844,0,0,0,-0.7096,-0.6951,-0.714,-0.6997,-0.7214,-0.7177,-0.7347,-0.7325,-0.7335,-0.7457,-0.7246,-0.724,-0.7048,-0.6963,-0.6855,-0.6731,-0.6673,0,0,-0.6857,-0.6918,-0.6843,-0.7015,-0.6919,-0.7167,-0.7039,-0.7142,-0.7238,-0.7232,-0.7229,-0.703,-0.6953,-0.6846,-0.6385,-0.6336,0,0,0,-0.6732,-0.6675,-0.6672,-0.6678,-0.6755,-0.6811,-0.6946,-0.6984,-0.6984,-0.7215,-0.6969,-0.6926,-0.6867,-0.6812,-0.6771,-0.6725,-0.7213,-0.7213,-0.7214,-0.6246,-0.6377,-0.6259,-0.6403,-0.6406,-0.6547,-0.656,-0.6635,-0.6767,-0.6706,-0.6703,-0.6407,-0.6339,-0.631,-0.6259,-0.6653,-0.6653,-0.6652,-0.6651,-0.5903,-0.5841,-0.6021,-0.5969,-0.6107,-0.6065,-0.6194,-0.6288,-0.6267,-0.6421,-0.6375,-0.6526,-0.6253,-0.6216,-0.6636,-0.6639,-0.6641,-0.6642,-0.6643,-0.5595,-0.5588,-0.5639,-0.5659,-0.566,-0.5813,-0.5783,-0.5912,-0.6032,-0.5988,-0.5996,-0.6,-0.6015,-0.5984,-0.5983,-0.5982,-0.5981,-0.598,-0.598,-0.5252,-0.5317,-0.5278,-0.5347,-0.5366,-0.5408,-0.5547,-0.5569,-0.5626,-0.5721,-0.5722,-0.5854,-0.6205,-0.6286,-0.5964,-0.5967,-0.5969,-0.597,-0.5972,-0.4846,-0.4959,-0.4896,-0.4916,-0.5007,-0.4996,-0.5163,-0.5195,-0.5233,-0.5212,-0.5358,-0.5597,-0.5668,-0.5702,-0.5769,-0.5334,-0.5334,-0.5334,-0.5333,-0.4581,-0.4632,-0.4596,-0.4618,-0.4654,-0.4798,-0.4719,-0.4825,-0.4953,-0.4983,-0.5066,-0.517,-0.5198,-0.5252,-0.5295,-0.536,-0.483,-0.483,-0.4829,-0.4336,-0.4396,-0.4305,-0.4433,-0.4514,-0.4579,-0.4507,-0.4522,-0.4691,-0.4811,-0.5008,-0.5029,-0.5198,-0.5247,-0.5365,-0.5429,-0.5551,0,0]}]]